GW1213 Weather Reports


time (UTC)temp
C
wind
direction
speed
KPH
gust
KPH
rain 1hr
cm
rain 24hr
cm
rain mn
cm
humidity
%
barometer
mb
20260509221034 24 273 1.6 12.9 0.00 0.00 0.00 45 1007.2
20260509220534 24 244 3.2 12.9 0.00 0.00 0.00 45 1007.2
20260509220053 24 236 3.2 12.9 0.00 0.00 0.00 44 1007.1
20260509215534 24 137 4.8 14.5 0.00 0.00 0.00 44 1007.1
20260509215035 24 248 4.8 14.5 0.00 0.00 0.00 45 1007.2
20260509214554 24 235 1.6 14.5 0.00 0.00 0.00 46 1007.1
20260509214037 24 270 1.6 14.5 0.00 0.00 0.00 46 1007.2
20260509213535 24 167 6.4 14.5 0.00 0.00 0.00 45 1007.2
20260509213054 24 219 3.2 12.9 0.00 0.00 0.00 45 1007.2
20260509212534 24 264 4.8 19.3 0.00 0.00 0.00 45 1007.2
20260509212034 25 196 4.8 19.3 0.00 0.00 0.00 44 1007.1
20260509211547 25 201 4.8 16.1 0.00 0.00 0.00 44 1007.1
20260509211036 25 211 1.6 14.5 0.00 0.00 0.00 45 1007.0
20260509210537 25 242 3.2 14.5 0.00 0.00 0.00 43 1007.0
20260509205535 25 196 1.6 16.1 0.00 0.00 0.00 45 1007.0
20260509205035 25 63 3.2 16.1 0.00 0.00 0.00 46 1006.8
20260509204557 25 180 6.4 12.9 0.00 0.00 0.00 44 1006.9
20260509204035 26 221 1.6 11.3 0.00 0.00 0.00 44 1006.9
20260509203539 25 224 1.6 12.9 0.00 0.00 0.00 45 1006.9
20260509203056 25 248 3.2 16.1 0.00 0.00 0.00 45 1006.9
20260509202536 25 275 4.8 16.1 0.00 0.00 0.00 46 1006.9
20260509202035 25 234 3.2 12.9 0.00 0.00 0.00 48 1006.9
20260509201556 24 292 1.6 16.1 0.00 0.00 0.00 49 1007.0
20260509201035 24 155 3.2 17.7 0.00 0.00 0.00 49 1007.1
20260509200534 24 146 3.2 17.7 0.00 0.00 0.00 49 1007.2
20260509200059 24 241 4.8 14.5 0.00 0.00 0.00 48 1007.3
20260509195536 24 182 1.6 12.9 0.00 0.00 0.00 49 1007.4
20260509195034 24 269 4.8 12.9 0.00 0.00 0.00 47 1007.4
20260509194552 25 268 1.6 12.9 0.00 0.00 0.00 48 1007.4
20260509194037 24 0 1.6 12.9 0.00 0.00 0.00 49 1007.4
20260509193536 24 0 0.0 11.3 0.00 0.00 0.00 51 1007.7
20260509193047 23 242 3.2 14.5 0.00 0.00 0.00 52 1007.7
20260509192535 23 260 4.8 14.5 0.00 0.00 0.00 52 1007.9
20260509192035 23 276 1.6 11.3 0.00 0.00 0.00 55 1008.0
20260509191550 22 242 3.2 11.3 0.00 0.00 0.00 55 1008.1
20260509191037 22 246 0.0 9.7 0.00 0.00 0.00 54 1008.2
20260509190534 22 171 3.2 9.7 0.00 0.00 0.00 54 1008.2
20260509185535 23 279 3.2 11.3 0.00 0.00 0.00 53 1008.4
20260509185035 23 0 0.0 14.5 0.00 0.00 0.00 55 1008.4
20260509184545 23 271 3.2 14.5 0.00 0.00 0.00 54 1008.5
20260509184036 22 246 3.2 12.9 0.00 0.00 0.00 56 1008.5
20260509183536 22 263 1.6 14.5 0.00 0.00 0.00 56 1008.6
20260509183053 22 260 4.8 14.5 0.00 0.00 0.00 55 1008.8
20260509182534 22 242 3.2 14.5 0.00 0.00 0.00 55 1008.8
20260509182034 22 270 4.8 12.9 0.00 0.00 0.00 54 1008.8
20260509181559 22 132 3.2 9.7 0.00 0.00 0.00 54 1008.9
20260509181035 22 218 1.6 9.7 0.00 0.00 0.00 54 1008.9
20260509180535 22 248 3.2 9.7 0.00 0.00 0.00 54 1008.9
20260509180059 22 260 3.2 9.7 0.00 0.00 0.00 54 1009.1
20260509175535 22 182 0.0 16.1 0.00 0.00 0.00 54 1009.0
20260509175035 22 257 0.0 16.1 0.00 0.00 0.00 54 1009.1
20260509174549 22 230 3.2 12.9 0.00 0.00 0.00 54 1009.2
20260509174034 22 157 3.2 12.9 0.00 0.00 0.00 55 1009.1
20260509173535 22 265 3.2 16.1 0.00 0.00 0.00 55 1009.2
20260509173049 22 5 1.6 16.1 0.00 0.00 0.00 55 1009.2
20260509172536 22 217 3.2 16.1 0.00 0.00 0.00 54 1009.3
20260509172035 22 279 6.4 16.1 0.00 0.00 0.00 56 1009.4
20260509171548 22 257 6.4 19.3 0.00 0.00 0.00 56 1009.4
20260509171035 21 127 6.4 19.3 0.00 0.00 0.00 57 1009.5
20260509170534 21 213 3.2 11.3 0.00 0.00 0.00 58 1009.6
20260509170047 21 242 0.0 16.1 0.00 0.00 0.00 58 1009.5
20260509165534 21 237 4.8 17.7 0.00 0.00 0.00 57 1009.6
20260509165038 21 213 3.2 19.3 0.00 0.00 0.00 57 1009.7
20260509164550 21 247 9.7 19.3 0.00 0.00 0.00 56 1009.6
20260509164035 21 232 3.2 14.5 0.00 0.00 0.00 56 1009.7
20260509163537 21 249 4.8 16.1 0.00 0.00 0.00 55 1009.6
20260509163053 21 275 6.4 16.1 0.00 0.00 0.00 55 1009.6
20260509162534 21 230 4.8 14.5 0.00 0.00 0.00 55 1009.6
20260509162035 21 253 6.4 19.3 0.00 0.00 0.00 55 1009.7
20260509161557 21 184 6.4 19.3 0.00 0.00 0.00 54 1009.7
20260509161034 21 229 6.4 19.3 0.00 0.00 0.00 54 1009.6
20260509160535 21 242 3.2 24.1 0.00 0.00 0.00 54 1009.7
20260509160051 21 282 6.4 24.1 0.00 0.00 0.00 53 1009.7
20260509155535 21 246 6.4 24.1 0.00 0.00 0.00 53 1009.8
20260509155034 21 339 4.8 19.3 0.00 0.00 0.00 54 1009.7
20260509154553 21 254 4.8 17.7 0.00 0.00 0.00 54 1009.9
20260509154034 21 211 6.4 17.7 0.00 0.00 0.00 55 1009.8
20260509153537 21 205 4.8 17.7 0.00 0.00 0.00 54 1009.8
20260509153053 21 141 6.4 22.5 0.00 0.00 0.00 53 1010.0
20260509152534 21 94 4.8 22.5 0.00 0.00 0.00 55 1010.0
20260509152037 21 201 6.4 17.7 0.00 0.00 0.00 55 1010.1
20260509151550 21 139 6.4 12.9 0.00 0.00 0.00 56 1010.1
20260509151036 21 217 4.8 16.1 0.00 0.00 0.00 57 1009.9
20260509150539 20 39 4.8 17.7 0.00 0.00 0.00 57 1009.9
20260509150052 20 167 3.2 17.7 0.00 0.00 0.00 57 1009.9
20260509145534 20 239 6.4 17.7 0.00 0.00 0.00 58 1010.1
20260509145034 20 109 3.2 14.5 0.00 0.00 0.00 60 1010.2
20260509144547 20 155 4.8 22.5 0.00 0.00 0.00 59 1010.3
20260509144034 19 285 3.2 22.5 0.00 0.00 0.00 59 1010.4
20260509143535 19 196 6.4 17.7 0.00 0.00 0.00 58 1010.5
20260509143047 19 132 4.8 17.7 0.00 0.00 0.00 60 1010.7
20260509142535 18 153 4.8 16.1 0.00 0.00 0.00 59 1010.7
20260509142034 18 246 3.2 14.5 0.00 0.00 0.00 60 1010.7
20260509141556 18 144 1.6 14.5 0.00 0.00 0.00 62 1010.6
20260509141039 18 313 3.2 12.9 0.00 0.00 0.00 62 1010.7
20260509140534 18 106 4.8 12.9 0.00 0.00 0.00 62 1010.8
20260509140100 18 167 1.6 14.5 0.00 0.00 0.00 63 1010.8
20260509135534 17 344 4.8 14.5 0.00 0.00 0.00 63 1010.8
20260509135036 17 227 3.2 12.9 0.00 0.00 0.00 63 1011.0
20260509134623 17 171 3.2 12.9 0.00 0.00 0.00 63 1011.0
20260509134037 17 328 3.2 14.5 0.00 0.00 0.00 64 1011.0
20260509133537 17 193 3.2 14.5 0.00 0.00 0.00 65 1011.0
20260509133050 17 165 4.8 12.9 0.00 0.00 0.00 65 1011.1
20260509132535 17 168 3.2 14.5 0.00 0.00 0.00 66 1011.1
20260509132038 16 0 3.2 14.5 0.00 0.00 0.00 66 1011.1
20260509131552 16 291 1.6 9.7 0.00 0.00 0.00 67 1011.1
20260509131035 16 250 1.6 8.0 0.00 0.00 0.00 68 1011.1
20260509130535 16 159 1.6 11.3 0.00 0.00 0.00 69 1011.2
20260509130047 16 155 3.2 11.3 0.00 0.00 0.00 69 1011.2
20260509125535 15 180 0.0 17.7 0.00 0.00 0.00 70 1011.2
20260509125036 15 206 4.8 17.7 0.00 0.00 0.00 70 1011.2
20260509124547 15 183 1.6 11.3 0.00 0.00 0.00 71 1011.3
20260509124034 15 200 3.2 8.0 0.00 0.00 0.00 71 1011.3
20260509123534 15 0 1.6 11.3 0.00 0.00 0.00 71 1011.3
20260509123044 15 164 3.2 11.3 0.00 0.00 0.00 72 1011.3
20260509122534 14 181 3.2 11.3 0.00 0.00 0.00 72 1011.2
20260509122035 14 178 1.6 9.7 0.00 0.00 0.00 72 1011.2
20260509121552 14 55 0.0 9.7 0.00 0.00 0.00 73 1011.2
20260509121035 14 161 1.6 11.3 0.00 0.00 0.00 73 1011.3
20260509120538 13 0 1.6 11.3 0.00 0.00 0.00 73 1011.2
20260509120049 13 71 3.2 17.7 0.00 0.00 0.00 73 1011.3
20260509115534 13 0 3.2 17.7 0.00 0.00 0.00 74 1011.4
20260509115037 13 0 4.8 17.7 0.00 0.00 0.00 74 1011.4
20260509114554 13 127 1.6 14.5 0.00 0.00 0.00 74 1011.4
20260509114035 13 167 3.2 14.5 0.00 0.00 0.00 74 1011.4
20260509113535 13 222 1.6 9.7 0.00 0.00 0.00 75 1011.3
20260509113051 12 82 3.2 9.7 0.00 0.00 0.00 76 1011.4
20260509112534 12 183 0.0 12.9 0.00 0.00 0.00 76 1011.4
20260509112034 12 112 0.0 12.9 0.00 0.00 0.00 76 1011.4
20260509111551 12 159 0.0 8.0 0.00 0.00 0.00 77 1011.4
20260509111034 11 134 0.0 6.4 0.00 0.00 0.00 77 1011.4
20260509110538 11 0 0.0 4.8 0.00 0.00 0.00 77 1011.3
20260509110050 11 0 0.0 4.8 0.00 0.00 0.00 77 1011.3
20260509105534 11 0 1.6 4.8 0.00 0.00 0.00 77 1011.2
20260509105034 11 71 0.0 0.0 0.00 0.00 0.00 76 1011.1
20260509104546 11 0 0.0 0.0 0.00 0.00 0.00 76 1011.2
20260509104034 11 0 0.0 0.0 0.00 0.00 0.00 75 1011.1
20260509103535 11 0 0.0 3.2 0.00 0.00 0.00 75 1011.2
20260509103101 11 0 0.0 4.8 0.00 0.00 0.00 75 1011.2
20260509102538 11 0 0.0 4.8 0.00 0.00 0.00 75 1011.2
20260509102038 11 75 0.0 4.8 0.00 0.00 0.00 75 1011.3
20260509101553 11 0 0.0 4.8 0.00 0.00 0.00 75 1011.2
20260509101037 11 0 1.6 4.8 0.00 0.00 0.00 74 1011.1
20260509100540 11 0 0.0 8.0 0.00 0.00 0.00 74 1011.1
20260509100046 11 0 0.0 8.0 0.00 0.00 0.00 73 1011.1
20260509095539 12 71 0.0 8.0 0.00 0.00 0.00 72 1011.0
20260509095038 12 105 0.0 6.4 0.00 0.00 0.00 73 1011.1
20260509094551 12 93 1.6 6.4 0.00 0.00 0.00 73 1011.0
20260509094038 12 90 0.0 6.4 0.00 0.00 0.00 71 1011.1
20260509093538 12 0 0.0 0.0 0.00 0.00 0.00 70 1011.1
20260509093049 12 0 0.0 3.2 0.00 0.00 0.00 71 1011.1
20260509092538 12 0 0.0 6.4 0.00 0.00 0.00 71 1011.2
20260509092038 12 67 1.6 6.4 0.00 0.00 0.00 71 1011.1
20260509091551 12 0 0.0 4.8 0.00 0.00 0.00 71 1011.0
20260509091041 12 127 0.0 4.8 0.00 0.00 0.00 70 1011.1
20260509090538 12 0 0.0 0.0 0.00 0.00 0.00 71 1011.1
20260509090050 12 0 0.0 0.0 0.00 0.00 0.00 68 1011.0
20260509085537 12 0 0.0 0.0 0.00 0.00 0.00 68 1011.1
20260509085038 12 0 0.0 0.0 0.00 0.00 0.00 68 1011.1
20260509084550 12 0 0.0 0.0 0.00 0.00 0.00 68 1011.1
20260509084038 12 0 0.0 0.0 0.00 0.00 0.00 67 1011.1
20260509083539 12 0 0.0 1.6 0.00 0.00 0.00 67 1011.1
20260509083048 13 0 0.0 4.8 0.00 0.00 0.00 66 1011.1
20260509082535 13 0 0.0 4.8 0.00 0.00 0.00 66 1011.2
20260509082038 13 208 0.0 1.6 0.00 0.00 0.00 65 1011.3
20260509081549 13 0 0.0 0.0 0.00 0.00 0.00 65 1011.4
20260509081036 13 0 0.0 1.6 0.00 0.00 0.00 65 1011.5
20260509080538 13 0 0.0 4.8 0.00 0.00 0.00 65 1011.5
20260509080047 13 0 0.0 4.8 0.00 0.00 0.00 65 1011.6
20260509075538 13 0 0.0 3.2 0.00 0.00 0.00 64 1011.6
20260509075038 13 0 0.0 4.8 0.00 0.00 0.00 65 1011.6
20260509074558 13 0 0.0 6.4 0.00 0.00 0.00 64 1011.7
20260509074037 13 0 0.0 6.4 0.00 0.00 0.00 63 1011.7
20260509073538 13 0 0.0 8.0 0.00 0.00 0.00 63 1011.7
20260509073047 13 0 0.0 8.0 0.00 0.00 0.00 63 1011.8
20260509072538 13 218 1.6 6.4 0.00 0.00 0.00 63 1011.8
20260509072039 13 0 0.0 8.0 0.00 0.00 0.00 64 1011.8
20260509071555 13 176 1.6 9.7 0.00 0.00 0.00 64 1011.8
20260509071038 12 202 1.6 9.7 0.00 0.00 0.00 64 1011.8
20260509070538 12 142 0.0 8.0 0.00 0.00 0.00 65 1011.9
20260509070053 12 145 1.6 9.7 0.00 0.00 0.00 66 1011.9
20260509065538 12 0 0.0 9.7 0.00 0.00 0.00 68 1011.9
20260509065035 12 0 0.0 0.0 0.00 0.00 0.00 70 1012.0
20260509064559 12 0 0.0 1.6 0.00 0.00 0.00 72 1012.0
20260509064038 12 0 0.0 6.4 0.00 0.00 0.00 69 1012.1
20260509063538 12 0 0.0 8.0 0.00 0.00 0.00 70 1012.0
20260509063049 12 0 0.0 8.0 0.00 0.00 0.00 70 1012.1
20260509062542 12 0 0.0 0.0 0.00 0.00 0.00 70 1012.1
20260509062042 12 0 0.0 0.0 0.00 0.00 0.00 72 1012.1
20260509061553 12 0 0.0 0.0 0.00 0.00 0.00 71 1012.1
20260509061037 12 0 0.0 0.0 0.00 0.00 0.00 70 1012.1
20260509060538 12 0 0.0 0.0 0.00 0.00 0.00 71 1012.1
20260509060049 12 0 0.0 0.0 0.00 0.00 0.00 70 1012.1
20260509055538 12 0 0.0 0.0 0.00 0.00 0.00 69 1012.1
20260509055038 12 0 0.0 0.0 0.00 0.00 0.00 69 1012.0
20260509054546 12 0 0.0 0.0 0.00 0.00 0.00 69 1012.0
20260509054038 12 0 0.0 0.0 0.00 0.00 0.00 68 1012.0
20260509053536 12 0 0.0 0.0 0.00 0.00 0.00 67 1012.0
20260509053051 12 0 0.0 0.0 0.00 0.00 0.00 67 1011.9
20260509052538 12 0 0.0 0.0 0.00 0.00 0.00 66 1012.0
20260509052037 12 0 0.0 0.0 0.00 0.00 0.00 68 1012.0
20260509051550 12 0 0.0 0.0 0.00 0.00 0.00 66 1012.0
20260509051038 12 0 0.0 0.0 0.00 0.00 0.00 67 1012.0
20260509050538 12 0 0.0 0.0 0.00 0.00 0.00 64 1012.0
20260509050048 12 0 0.0 0.0 0.00 0.00 0.00 63 1012.0
20260509045537 12 0 0.0 0.0 0.00 0.00 0.00 65 1011.9
20260509045037 13 0 0.0 0.0 0.00 0.00 0.00 65 1011.9
20260509044547 13 0 0.0 0.0 0.00 0.00 0.00 65 1011.9
20260509044038 13 0 0.0 0.0 0.00 0.00 0.00 67 1011.9
20260509043538 13 0 0.0 0.0 0.00 0.00 0.00 65 1012.0
20260509043055 13 0 0.0 0.0 0.00 0.00 0.00 65 1011.9
20260509042538 13 0 0.0 1.6 0.00 0.00 0.00 63 1011.9
20260509042035 13 0 0.0 3.2 0.00 0.00 0.00 63 1011.9
20260509041549 13 0 0.0 3.2 0.00 0.00 0.00 63 1012.0
20260509041034 13 0 0.0 1.6 0.00 0.00 0.00 63 1012.0
20260509040537 13 0 0.0 1.6 0.00 0.00 0.00 60 1012.0
20260509040051 13 0 0.0 0.0 0.00 0.00 0.00 62 1012.1
20260509035539 13 0 0.0 0.0 0.00 0.00 0.00 59 1012.2
20260509035035 13 0 0.0 0.0 0.00 0.00 0.00 62 1012.2
20260509034552 13 0 0.0 0.0 0.00 0.00 0.00 61 1012.3
20260509034034 13 0 0.0 0.0 0.00 0.00 0.00 64 1012.3
20260509033534 13 0 0.0 0.0 0.00 0.00 0.00 65 1012.3
20260509033052 14 0 0.0 0.0 0.00 0.00 0.00 61 1012.4
20260509032535 14 0 0.0 0.0 0.00 0.00 0.00 59 1012.3
20260509032034 14 0 0.0 0.0 0.00 0.00 0.00 60 1012.4
20260509031558 14 0 0.0 0.0 0.00 0.00 0.00 58 1012.3
20260509031034 15 0 0.0 0.0 0.00 0.00 0.00 58 1012.4
20260509030534 15 0 0.0 0.0 0.00 0.00 0.00 58 1012.4
20260509030051 15 0 0.0 0.0 0.00 0.00 0.00 57 1012.3
20260509025535 15 0 0.0 0.0 0.00 0.00 0.00 56 1012.2
20260509025035 15 0 0.0 3.2 0.00 0.00 0.00 54 1012.4
20260509024548 15 0 0.0 3.2 0.00 0.00 0.00 52 1012.4
20260509024035 15 0 0.0 1.6 0.00 0.00 0.00 50 1012.4
20260509023534 15 0 0.0 1.6 0.00 0.00 0.00 53 1012.4
20260509023046 15 0 0.0 4.8 0.00 0.00 0.00 53 1012.3
20260509022534 15 0 0.0 6.4 0.00 0.00 0.00 50 1012.3
20260509022035 15 0 0.0 6.4 0.00 0.00 0.00 50 1012.3
20260509021548 15 0 0.0 0.0 0.00 0.00 0.00 50 1012.2
20260509021034 15 0 0.0 1.6 0.00 0.00 0.00 50 1012.2
20260509020534 15 0 0.0 1.6 0.00 0.00 0.00 53 1012.1
20260509020044 16 0 0.0 1.6 0.00 0.00 0.00 55 1012.1
20260509015535 16 0 0.0 1.6 0.00 0.00 0.00 55 1012.1
20260509015040 16 0 0.0 0.0 0.00 0.00 0.00 53 1012.1
20260509014543 16 0 0.0 0.0 0.00 0.00 0.00 56 1012.0
20260509014035 16 0 0.0 0.0 0.00 0.00 0.00 51 1012.0
20260509013535 16 0 0.0 0.0 0.00 0.00 0.00 50 1012.0
20260509013057 16 0 0.0 0.0 0.00 0.00 0.00 52 1012.0
20260509012535 17 0 0.0 0.0 0.00 0.00 0.00 49 1012.0
20260509012035 17 0 0.0 0.0 0.00 0.00 0.00 48 1011.9
20260509011551 17 0 0.0 0.0 0.00 0.00 0.00 47 1011.9
20260509011036 17 0 0.0 3.2 0.00 0.00 0.00 46 1011.8
20260509010534 18 0 0.0 3.2 0.00 0.00 0.00 45 1011.7
20260509010047 18 0 0.0 6.4 0.00 0.00 0.00 42 1011.7
20260509005538 18 0 0.0 6.4 0.00 0.00 0.00 40 1011.7
20260509005035 18 190 0.0 6.4 0.00 0.00 0.00 40 1011.6
20260509004557 18 0 0.0 6.4 0.00 0.00 0.00 40 1011.7
20260509004035 18 0 0.0 4.8 0.00 0.00 0.00 39 1011.7
20260509003535 18 0 0.0 6.4 0.00 0.00 0.00 38 1011.7
20260509003051 19 175 0.0 8.0 0.00 0.00 0.00 38 1011.6
20260509002539 19 0 1.6 8.0 0.00 0.00 0.00 38 1011.5
20260509002035 19 0 0.0 4.8 0.00 0.00 0.00 37 1011.6
20260509001553 19 0 0.0 9.7 0.00 0.00 0.00 37 1011.5
20260509001036 20 0 0.0 9.7 0.00 0.00 0.00 37 1011.4
20260509000536 20 247 1.6 9.7 0.00 0.00 0.00 37 1011.4
20260509000049 20 239 0.0 11.3 0.00 0.00 0.00 36 1011.3
20260508235535 20 171 0.0 11.3 0.00 0.00 0.00 36 1011.2
20260508235037 20 0 1.6 17.7 0.00 0.00 0.00 35 1011.3
20260508234548 20 222 3.2 17.7 0.00 0.00 0.00 36 1011.2
20260508234034 20 180 3.2 17.7 0.00 0.00 0.00 35 1011.2
20260508233538 20 0 3.2 9.7 0.00 0.00 0.00 35 1011.1
20260508233047 21 195 1.6 9.7 0.00 0.00 0.00 35 1011.1
20260508232535 21 231 1.6 12.9 0.00 0.00 0.00 34 1011.1
20260508232035 21 0 3.2 12.9 0.00 0.00 0.00 34 1011.0
20260508231546 21 248 1.6 14.5 0.00 0.00 0.00 34 1011.0
20260508231037 21 0 4.8 14.5 0.00 0.00 0.00 33 1010.9
20260508230535 21 222 6.4 14.5 0.00 0.00 0.00 33 1010.9
20260508230051 21 205 3.2 14.5 0.00 0.00 0.00 33 1010.8
20260508225534 21 246 4.8 14.5 0.00 0.00 0.00 33 1010.8
20260508225034 21 247 3.2 16.1 0.00 0.00 0.00 33 1010.9
20260508224557 21 246 6.4 16.1 0.00 0.00 0.00 33 1010.8
20260508224035 21 148 4.8 14.5 0.00 0.00 0.00 32 1010.8
20260508223535 21 212 4.8 16.1 0.00 0.00 0.00 33 1010.8
20260508223053 21 0 3.2 16.1 0.00 0.00 0.00 33 1010.8
20260508222537 21 199 6.4 19.3 0.00 0.00 0.00 33 1010.8
20260508222036 21 176 3.2 20.9 0.00 0.00 0.00 32 1010.8
20260508221550 21 103 1.6 20.9 0.00 0.00 0.00 33 1010.9